User: anonymous   Login
Location: NJAA Observatory
(40.6819°N, 74.8979°W)
Time: 08:32:48
(UTC-04:00)
Language:

Iridium 4 - Orbit

View from above orbital plane
View from above orbital plane
View from above satellite
View from above satellite

Ground track
Ground track

The orbit data is extracted from the following two-line orbital elements,

1 24796U 97020E   15114.49898568  .00000673  00000-0  22997-3 0  9993
2 24796 086.3921 286.3064 0002196 093.0374 319.4118 14.34914231940778
Epoch (UTC): 24 April 2015 11:58:32
Eccentricity: 0.0002196
inclination: 86.3921°
perigee height: 774 km
apogee height: 777 km
right ascension of ascending node: 286.3064°
argument of perigee: 93.0374°
revolutions per day: 14.34914231
mean anomaly at epoch: 319.4118°
orbit number at epoch: 94077

The dashed part of the orbit path shows where the satellite is in the earth's shadow,  

DLR